This is the latest recevied weather packets stored in our database for station/object N5LSN. If no packets are shown the sender has not sent any weather packets the latest 10 day(s).
| Time | Temp. | Humidity | Pressure | Rain* | Wind** | Luminosity | Snow |
|---|---|---|---|---|---|---|---|
| 1777188982 | 17.78° C | 99% | 1012.1 hPa | 0.51 mm | - | 0 W/m² | - |
| 1777188680 | 17.78° C | 99% | 1012.3 hPa | 0.51 mm | - | 0 W/m² | - |
| 1777188376 | 17.78° C | 99% | 1012.2 hPa | 0.51 mm | - | 0 W/m² | - |
| 1777188075 | 17.78° C | 99% | 1012.7 hPa | 0.51 mm | - | 0 W/m² | - |
| 1777187770 | 17.78° C | 99% | 1013.2 hPa | 0 mm | - | 0 W/m² | - |
| 1777187466 | 17.78° C | 99% | 1013.5 hPa | 0.51 mm | - | 0 W/m² | - |
| 1777187162 | 17.78° C | 99% | 1013.5 hPa | 1.27 mm | - | 0 W/m² | - |
| 1777186857 | 17.78° C | 99% | 1013.2 hPa | 1.78 mm | - | 0 W/m² | - |
| 1777186553 | 18.33° C | 99% | 1012.7 hPa | 4.32 mm | - | 0 W/m² | - |
| 1777186248 | 18.33° C | 99% | 1013 hPa | 6.1 mm | - | 0 W/m² | - |
| 1777185944 | 18.33° C | 99% | 1013.2 hPa | 4.83 mm | - | 0 W/m² | - |
| 1777185640 | 18.33° C | 99% | 1014 hPa | 2.29 mm | - | 0 W/m² | - |
| 1777185336 | 18.33° C | 99% | 1013.7 hPa | 1.78 mm | - | 0 W/m² | - |
| 1777185033 | 18.33° C | 99% | 1013 hPa | 2.29 mm | - | 0 W/m² | - |
| 1777184731 | 18.33° C | 99% | 1012.3 hPa | 3.56 mm | - | 0 W/m² | - |
| 1777184426 | 18.33° C | 99% | 1011.8 hPa | 5.33 mm | - | 0 W/m² | - |
| 1777184122 | 18.33° C | 99% | 1012.7 hPa | 6.1 mm | - | 0 W/m² | - |
| 1777183817 | 18.33° C | 99% | 1013 hPa | 5.33 mm | - | 0 W/m² | - |
| 1777183515 | 18.33° C | 99% | 1012.8 hPa | 3.56 mm | - | 0 W/m² | - |
| 1777183208 | 18.33° C | 99% | 1012.8 hPa | 3.56 mm | - | 0 W/m² | - |
| 1777182904 | 18.33° C | 99% | 1012.8 hPa | 4.32 mm | - | 0 W/m² | - |
| 1777182595 | 18.33° C | 99% | 1012.7 hPa | 3.56 mm | - | 0 W/m² | - |
| 1777182291 | 18.33° C | 99% | 1012.8 hPa | 2.29 mm | - | 0 W/m² | - |
| 1777181988 | 18.33° C | 99% | 1012.5 hPa | 2.29 mm | - | 0 W/m² | - |
| 1777181682 | 18.33° C | 98% | 1012 hPa | 1.78 mm | - | 0 W/m² | - |
* Rain latest hour (hover to see other rain measurements)
** Current wind speed in m/s (hover to see current wind gust speed)